Regional Weather Roundup
Issued by NWS Sterling, VA

Home | Current Version | Previous Version | Graphics & Text | Print | Product List | Glossary On
Versions: 1 2 3 4 5 6 7 8 9 10 11 12 13 14 15 16 17 18 19 20 21 22 23 24 25 26 27 28 29 30 31 32 33 34 35 36 37 38 39 40 41 42 43 44 45 46 47 48 49 50
000
ASUS41 KLWX 292110
RWRLWX

REGIONAL WEATHER ROUNDUP
NATIONAL WEATHER SERVICE BALTIMORE MD/WASHINGTON DC
400 PM EST THU JAN 29 2015

Note: "FAIR" indicates few or no clouds below 12,000 feet
with no significant weather and/or obstructions to visibility.
 TC=TEMPERATURE CELSIUS

 * =Non NWS site. Station does not report precipitation (e.g. rain,
    snow, etc.), thunder, or fog.

DCZ001-MDZ009-015-VAZ040>042-051-053>054-292200-
WASHINGTON METRO

CITY           SKY/WX    TMP DP  RH WIND       PRES   REMARKS
WASHINGTON NAT LGT RAIN  38  15  39 SE12      30.12F
DULLES         LGTSLEET  34  16  47 S8        30.08F WCI  27
ANDREWS AFB    LGT RAIN  36  16  44 SE12      30.10F WCI  27
FT BELVOIR     LGT RAIN  35  18  49 SE6       30.11F
QUANTICO       CLOUDY    37  22  54 S12       30.11F
COLLEGE PARK*  CLOUDY    36  18  48 SE3       30.11F
LEESBURG*      MIX PCPN  34  23  64 S7        30.08F
MANASSAS*      CLOUDY    36  18  48 SE7       30.09F
GAITHERSBURG*  CLOUDY    34  12  40 SE8       30.10F WCI  27

$$

MDZ006>007-011-014-292200-
BALTIMORE METRO

CITY           SKY/WX    TMP DP  RH WIND       PRES   REMARKS
BWI AIRPORT    CLOUDY    33  17  51 SE6       30.11F
MD SCIENCE CTR   N/A     34  17  50 MISG      30.12F
MARTIN STATE   CLOUDY    34  21  60 SE12      30.14F WCI  25
ANNAPOLIS      CLOUDY    34  20  56 S14       30.12F WCI  25
FORT MEADE*    CLOUDY    34  19  55 SE8       30.13F WCI  27

$$

MDZ012-015-019>023-292200-
MARYLAND EASTERN SHORE

CITY           SKY/WX    TMP DP  RH WIND       PRES   REMARKS
OCEAN CITY     CLOUDY    34  22  61 MISG      30.19F
SALISBURY      CLOUDY    39  13  34 S8        30.16F
BAY BRIDGE AP*   N/A     34  14  44 S9        30.14F WCI  26
CAMBRIDGE*     CLOUDY    36  21  55 S6        30.15F
EASTON*        PTSUNNY   37  12  35 S12       30.18F

$$

MDZ017>025-292200-
SOUTHERN MARYLAND

CITY           SKY/WX    TMP DP  RH WIND       PRES   REMARKS
PATUXENT RIVER CLOUDY    36  22  56 SE9       30.14F WCI  29
ST INIGOES     CLOUDY    37  21  52 SE8       30.14F
LEONARDTOWN*   CLOUDY    36  19  51 SE5       30.15F

$$

MDZ003>005-292200-
NORTH CENTRAL MARYLAND

CITY           SKY/WX    TMP DP  RH WIND       PRES   REMARKS
FREDERICK*     FLURRIES  34  14  44 CALM      30.10
HAGERSTOWN APT LGT SNOW  31  18  58 S9        30.03S WCI  23
WESTMINSTER*   CLOUDY    32  14  47 S13       30.05S WCI  22

$$

MDZ501>502-292200-
WESTERN MARYLAND

CITY           SKY/WX    TMP DP  RH WIND       PRES   REMARKS
OAKLAND*       CLOUDY    30 N/A N/A SE9       29.83S WCI  22
CUMBERLAND*    CLOUDY    28  25  86 CALM      30.02F

$$

VAZ025>031-292200-
SHENANDOAH VALLEY

CITY           SKY/WX    TMP DP  RH WIND       PRES   REMARKS
WINCHESTER*    MIX PCPN  34  23  64 SE12      30.00F WCI  25
FRONT ROYAL*   CLOUDY    32  28  86 S3        30.00F
LURAY*         CLOUDY    37  28  70 SW10      29.99F
NEW MARKET*    CLOUDY    37  26  66 SW7       29.98F
STAUNTON*      CLOUDY    38  24  57 S8        30.01F
WAYNESBORO*    CLOUDY    37  25  63 S9G17     29.99F

$$

WVZ021-048>050-054>055-292200-
EASTERN WEST VIRGINIA PANHANDLE

CITY           SKY/WX    TMP DP  RH WIND       PRES   REMARKS
MARTINSBURG    LGT SNOW  33  21  61 SE8       30.02F WCI  26
PETERSBURG*    CLOUDY    33  28  82 W3        29.95S

$$

VAZ036>039-050-292200-
CENTRAL FOOTHILLS

CITY           SKY/WX    TMP DP  RH WIND       PRES   REMARKS
CHARLOTTESVILL CLOUDY    38  23  55 SW10      30.05F
CULPEPER*      RAIN      37  25  60 CALM      30.08F
ORANGE*        DRIZZLE   37  27  65 SE3       30.09S
GORDONSVILLE*  CLOUDY    37  26  65 S6        30.07S
WARRENTON*     RAIN      37  27  66 S5        30.08S

$$

VAZ055>057-292200-
NORTH AND CENTRAL PIEDMONT

CITY           SKY/WX    TMP DP  RH WIND       PRES   REMARKS
FREDERICKSBRG* DRIZZLE   40  17  39 SE8       30.09F
STAFFORD*      DRIZZLE   38  12  34 CALM      30.13F

$$

NCZ024-NYZ072-PAZ021-071-VAZ022-071-292200-
OTHER REGIONAL OBSERVATIONS

CITY           SKY/WX    TMP DP  RH WIND       PRES   REMARKS
NEW YORK CITY  CLOUDY    30  17  58 MISG      30.18F
PHILADELPHIA   CLOUDY    34  11  38 S7        30.15F
PITTSBURGH     CLOUDY    38  34  85 S9        29.79F
ROANOKE        MOSUNNY   44  26  49 CALM      30.04F
RICHMOND       CLOUDY    42  14  32 S12       30.12F
RALEIGH        LGTSLEET  46  16  29 SW10      30.16F

$$

ANZ530>537-292200-
MARINE OBSERVATIONS

STATION/POSITION TIME  TEMP    WIND        PRES
                       AIR SEA DIR/SP/G
                 (UTC) (F)     (DEG/KT/KT) (MB)
THOMAS PT LIGHT  2100   34 36  160/ 18/ 21 1020.7F
BALT KEY BRIDGE  2100   33     130/ 15/ 18 1019.7F
COVE POINT       2100   33     180/ 16/ 18 1020.6F
LEWISETTA        2100   38 36  180/  7/  8 1020.4F
SOLOMONS ISLAND  2100      37                N/A
PINEY POINT      2100          170/  9/ 11   N/A

$$



USA.gov is the U.S. government's official web portal to all federal, state and local government web resources and services.